Measurements were made at the meteorological tower in Juelich (50.90 N / 6.40 E) at an altitude of 100 m
"Instrument: Fast Greenhouse Gas Analyzer (FGGA), Los Gatos Inc."
Responsible PI: Dr. Marc von Hobe; Forschungszentrum Juelich GmbH; IEK-7; email: m.von.hobe@fz-juelich.de
NaN or negative numbers are fill values (i.e. no valid measurements were made at that time)
Uncertainties are given as the 1-sigma standard deviation over each 10 minute intervals. In each interval ~600 individual measurements are carried out so that the standard error of the mean is approximately sigma/sqrt(600).
time_utc,CO2_ppm,stdev_CO2_ppm,CH4_ppm,stdev_CH4_ppm,H2O_ppm,stdev_H2O_ppm
"2017-03-01 00:05:00 000",406.659,0.863296,1.93284,0.00431525,7207.99,144.961
"2017-03-01 00:15:00 000",406.697,0.826038,1.93269,0.00422565,7221.36,145.681
"2017-03-01 00:25:00 000",406.914,0.849271,1.93162,0.00454233,7279.93,147.915
"2017-03-01 00:35:00 000",407.023,0.909402,1.93442,0.00471879,7156.09,157.132
"2017-03-01 00:45:00 000",407.100,0.841115,1.93413,0.00440282,7328.02,159.051
"2017-03-01 00:55:00 000",407.068,0.883815,1.93390,0.00453450,7338.56,153.746
"2017-03-01 01:05:00 000",406.919,0.834511,1.93770,0.00429889,7263.14,148.467
"2017-03-01 01:15:00 000",406.925,0.867116,1.93561,0.00424795,7450.98,153.407
"2017-03-01 01:25:00 000",406.947,0.900943,1.93891,0.00431539,7328.97,152.209
"2017-03-01 01:35:00 000",407.290,0.842276,1.93854,0.00431903,7398.62,156.847
"2017-03-01 01:45:00 000",407.127,0.869002,1.93656,0.00443893,7605.03,154.132
"2017-03-01 01:55:00 000",407.119,0.844506,1.93596,0.00440838,7636.07,185.722
"2017-03-01 02:05:00 000",407.552,0.921015,1.93542,0.00454437,7682.79,156.153
"2017-03-01 02:15:00 000",407.107,0.866106,1.93347,0.00426648,7774.55,178.291
"2017-03-01 02:25:00 000",407.435,0.847070,1.93361,0.00444556,7759.61,165.670
"2017-03-01 02:35:00 000",407.505,0.851021,1.93296,0.00457662,7777.25,172.787
"2017-03-01 02:45:00 000",407.561,0.901228,1.93288,0.00461217,7870.43,171.449
"2017-03-01 02:55:00 000",407.902,0.950471,1.93166,0.00487262,7949.64,171.299
"2017-03-01 03:05:00 000",407.591,0.895063,1.93274,0.00483264,7932.46,169.819
"2017-03-01 03:15:00 000",407.966,0.949906,1.93355,0.00472955,7858.95,198.154
"2017-03-01 03:25:00 000",408.255,0.875141,1.93270,0.00471146,7782.40,188.978
"2017-03-01 03:35:00 000",407.804,0.889136,1.93388,0.00490101,7700.41,179.532
"2017-03-01 03:45:00 000",407.200,0.915964,1.93252,0.00473960,7691.45,179.404
"2017-03-01 03:55:00 000",407.336,0.880002,1.93292,0.00472601,7582.85,185.673
"2017-03-01 04:05:00 000",407.391,0.918373,1.93340,0.00510664,7575.87,183.362
"2017-03-01 04:15:00 000",407.454,0.892153,1.93421,0.00445662,7761.50,195.316
"2017-03-01 04:25:00 000",407.508,0.864104,1.93600,0.00601106,7917.56,199.352
"2017-03-01 04:35:00 000",407.259,0.849093,1.94256,0.00502368,7881.01,200.181
"2017-03-01 04:45:00 000",407.343,1.03785,1.93650,0.00487163,7864.47,191.504
"2017-03-01 04:55:00 000",408.037,0.876825,1.94010,0.00474878,7943.65,192.697
"2017-03-01 05:05:00 000",408.253,0.864194,1.93862,0.00496801,8071.21,219.735
"2017-03-01 05:15:00 000",408.070,0.876272,1.93705,0.00507476,8206.23,207.452
"2017-03-01 05:25:00 000",408.007,0.972747,1.93901,0.00518817,8285.60,201.792
"2017-03-01 05:35:00 000",407.602,0.997216,1.93889,0.00551142,8321.27,220.573
"2017-03-01 05:45:00 000",407.873,1.01557,1.93773,0.00526632,8325.12,225.716
"2017-03-01 05:55:00 000",408.413,0.966296,1.93603,0.00514197,8239.12,224.547
"2017-03-01 06:05:00 000",408.141,0.964104,1.93680,0.00555698,8278.41,243.313
"2017-03-01 06:15:00 000",407.460,1.04952,1.93920,0.00578315,8278.36,244.275
"2017-03-01 06:25:00 000",408.539,1.18014,1.93846,0.00570623,8318.27,250.083
"2017-03-01 06:35:00 000",409.314,1.08592,1.93931,0.00624331,8220.87,251.955
"2017-03-01 06:45:00 000",408.214,1.00292,1.93982,0.00632721,8055.20,266.103
"2017-03-01 06:55:00 000",407.925,0.990639,1.93612,0.00591455,8023.05,254.174
"2017-03-01 07:05:00 000",407.979,1.03278,1.93312,0.00603669,8159.33,268.513
"2017-03-01 07:15:00 000",406.677,0.955553,1.93079,0.00590111,8297.32,256.567
"2017-03-01 07:25:00 000",407.909,1.15853,1.93637,0.00695725,8101.18,268.684
"2017-03-01 07:35:00 000",407.031,1.05152,1.93465,0.00599428,7959.74,270.176
"2017-03-01 07:45:00 000",405.905,0.978069,1.93544,0.00730149,7874.09,255.556
"2017-03-01 07:55:00 000",406.786,1.00818,1.93065,0.00557922,7804.24,259.468
"2017-03-01 08:05:00 000",407.199,0.887732,1.93170,0.00569519,7850.22,265.961
"2017-03-01 08:15:00 000",406.909,1.04890,1.93321,0.00595260,7747.26,260.081
"2017-03-01 08:25:00 000",407.385,0.948884,1.93679,0.00636119,7767.31,243.524
"2017-03-01 08:35:00 000",407.083,0.888424,1.94625,0.00731658,7804.95,226.617
"2017-03-01 08:45:00 000",407.925,0.933854,1.95100,0.00697329,7679.81,233.655
"2017-03-01 08:55:00 000",407.080,1.07553,1.95016,0.00726756,7599.11,217.018
"2017-03-01 09:05:00 000",407.176,0.870434,1.94723,0.00700152,7570.85,193.980
"2017-03-01 09:15:00 000",406.941,0.900969,1.94928,0.00665125,7628.74,218.188
"2017-03-01 09:25:00 000",407.405,0.972244,1.94073,0.00592603,7141.18,254.750
"2017-03-01 09:35:00 000",407.446,0.822879,1.93446,0.00477431,7019.95,176.144
"2017-03-01 09:45:00 000",406.993,0.869039,1.94245,0.00770406,6966.37,191.018
"2017-03-01 09:55:00 000",406.513,1.12216,1.94587,0.00818968,6997.41,198.639
"2017-03-01 10:05:00 000",406.351,1.08315,1.94504,0.00736800,6954.67,228.102
"2017-03-01 10:15:00 000",406.900,1.06379,1.93900,0.00941099,6922.30,227.583
"2017-03-01 10:25:00 000",407.309,0.992096,1.94285,0.0109129,7016.75,259.047
"2017-03-01 10:35:00 000",408.169,1.08718,1.95854,0.00823398,7226.73,262.181
"2017-03-01 10:45:00 000",408.869,1.00422,1.94876,0.00992858,7396.39,261.348
"2017-03-01 10:55:00 000",408.685,0.988587,1.94682,0.00636748,7486.10,250.943
"2017-03-01 11:05:00 000",409.966,0.963968,1.94738,0.00643386,7601.38,248.726
"2017-03-01 11:15:00 000",410.887,0.946805,1.96145,0.0135846,7624.26,256.975
"2017-03-01 11:25:00 000",410.946,0.973696,1.96288,0.0170988,7653.56,251.168
"2017-03-01 11:35:00 000",410.640,0.918999,1.97185,0.0130979,7685.76,258.926
"2017-03-01 11:45:00 000",411.015,0.978933,1.97928,0.00929535,8037.59,263.582
"2017-03-01 11:55:00 000",409.897,1.07684,1.97386,0.0100440,8274.56,282.312
"2017-03-01 12:05:00 000",409.210,1.07236,1.95548,0.0106559,8417.66,272.219
"2017-03-01 12:15:00 000",407.164,1.31394,1.94071,0.00716268,8648.78,261.631
"2017-03-01 12:25:00 000",405.688,0.920997,1.93441,0.00528273,8821.53,218.358
"2017-03-01 12:35:00 000",405.531,0.981941,1.93406,0.00531995,8933.18,211.691
"2017-03-01 12:45:00 000",405.267,0.861379,1.93236,0.00502906,9010.01,201.800
"2017-03-01 12:55:00 000",404.998,0.830176,1.93168,0.00477654,9051.79,180.964
"2017-03-01 13:05:00 000",404.857,0.875920,1.93122,0.00408484,9104.84,153.779
"2017-03-01 13:15:00 000",405.050,0.840915,1.92789,0.00409023,9151.31,132.427
"2017-03-01 13:25:00 000",404.916,0.833515,1.93019,0.00444136,9124.11,119.466
"2017-03-01 13:35:00 000",405.236,0.871580,1.93037,0.00558026,9092.23,125.669
"2017-03-01 13:45:00 000",405.120,0.833353,1.93164,0.00531249,9064.20,140.772
"2017-03-01 13:55:00 000",405.141,0.833047,1.93000,0.00390323,9043.22,125.351
"2017-03-01 14:05:00 000",405.158,0.832503,1.93171,0.00384958,8509.83,286.661
"2017-03-01 14:15:00 000",405.762,0.872878,1.93109,0.00401896,7871.58,188.289
"2017-03-01 14:25:00 000",405.891,0.896155,1.93014,0.00398744,7198.97,131.680
"2017-03-01 14:35:00 000",405.759,0.877605,1.92814,0.00401739,7134.10,114.552
"2017-03-01 14:45:00 000",405.473,1.02146,1.92886,0.00394597,7288.54,114.572
"2017-03-01 14:55:00 000",405.331,0.894008,1.92845,0.00354170,7365.15,113.819
"2017-03-01 15:05:00 000",405.740,0.882676,1.92952,0.00399572,7344.26,105.875
"2017-03-01 15:15:00 000",405.631,0.828187,1.92886,0.00381531,7309.19,113.031
"2017-03-01 15:25:00 000",405.005,0.879891,1.92547,0.00412631,7141.52,108.026
"2017-03-01 15:35:00 000",404.752,0.904928,1.92602,0.00413518,7280.18,167.682
"2017-03-01 15:45:00 000",405.259,0.909106,1.92561,0.00398649,7524.06,108.470
"2017-03-01 15:55:00 000",405.438,0.901048,1.92548,0.00388492,7502.42,103.364
"2017-03-01 16:05:00 000",406.228,0.863630,1.92557,0.00412791,7538.20,105.405
"2017-03-01 16:15:00 000",408.527,2.78924,1.92937,0.00397963,7588.91,108.115
"2017-03-01 16:25:00 000",413.595,2.35884,1.93331,0.00503964,7768.20,100.040
"2017-03-01 16:35:00 000",410.240,1.89195,1.93405,0.00494627,7737.58,108.196
"2017-03-01 16:45:00 000",411.324,2.37731,1.93081,0.00439434,7833.15,96.8912
"2017-03-01 16:55:00 000",412.643,2.29298,1.92084,0.00962246,7649.69,133.605
"2017-03-01 17:05:00 000",409.562,1.91523,1.90698,0.00417910,7183.35,150.999
"2017-03-01 17:15:00 000",413.516,2.86966,1.90586,0.00424835,7181.66,112.243
"2017-03-01 17:25:00 000",410.746,1.85511,1.90424,0.00429139,7329.94,115.895
"2017-03-01 17:35:00 000",404.567,1.50996,1.90208,0.00426734,7425.30,116.600
"2017-03-01 17:45:00 000",404.060,0.913674,1.90864,0.00600353,7396.10,98.1459
"2017-03-01 17:55:00 000",404.120,0.871024,1.90215,0.00434065,7408.57,102.674
"2017-03-01 18:05:00 000",404.318,0.873161,1.90617,0.00471272,7446.44,103.303
"2017-03-01 18:15:00 000",405.150,1.10951,1.91371,0.00441829,7444.20,102.618
"2017-03-01 18:25:00 000",406.201,1.02758,1.91532,0.00444065,7396.56,93.5050
"2017-03-01 18:35:00 000",406.781,1.08570,1.91459,0.00450217,7375.64,105.795
"2017-03-01 18:45:00 000",407.122,1.43402,1.92035,0.00646735,7388.13,108.434
"2017-03-01 18:55:00 000",406.032,0.973305,1.91322,0.00431032,7398.10,106.225
"2017-03-01 19:05:00 000",405.869,0.892794,1.91572,0.00437657,7292.10,116.827
"2017-03-01 19:15:00 000",404.922,0.912648,1.91798,0.00463821,7326.71,132.494
"2017-03-01 19:25:00 000",405.994,0.927723,1.92218,0.00444931,7471.63,123.390
"2017-03-01 19:35:00 000",406.500,0.872236,1.92397,0.00507519,7618.17,150.060
"2017-03-01 19:45:00 000",406.006,0.916997,1.92643,0.00485895,7717.97,138.736
"2017-03-01 19:55:00 000",405.930,0.952246,1.92568,0.00498265,7796.74,148.715
"2017-03-01 20:05:00 000",406.687,0.941900,1.92499,0.00537390,7925.50,160.025
"2017-03-01 20:15:00 000",407.762,2.55925,1.93040,0.00658720,8104.64,139.363
"2017-03-01 20:25:00 000",410.944,2.68899,1.92239,0.00559436,8431.22,163.073
"2017-03-01 20:35:00 000",410.483,1.22664,1.92466,0.00546947,8570.10,153.410
"2017-03-01 20:45:00 000",410.537,1.25825,1.92934,0.00544285,8549.83,156.165
"2017-03-01 20:55:00 000",411.338,1.21184,1.92770,0.00458257,8641.78,156.827
"2017-03-01 21:05:00 000",410.059,1.12693,1.92821,0.00475402,8917.84,156.178
"2017-03-01 21:15:00 000",408.676,1.22331,1.92651,0.00462335,9159.59,145.320
"2017-03-01 21:25:00 000",406.153,1.05790,1.91800,0.00512963,9365.63,160.835
"2017-03-01 21:35:00 000",405.232,0.998407,1.91782,0.00393945,9657.54,132.418
"2017-03-01 21:45:00 000",405.468,0.898681,1.91684,0.00419768,9684.04,116.446
"2017-03-01 21:55:00 000",405.368,0.845570,1.91629,0.00403043,9528.63,119.058
"2017-03-01 22:05:00 000",405.477,0.889196,1.92055,0.00402978,9291.16,140.493
"2017-03-01 22:15:00 000",405.530,0.870739,1.92107,0.00377217,9062.98,144.737
"2017-03-01 22:25:00 000",405.472,0.831325,1.91920,0.00420216,9038.42,164.622
"2017-03-01 22:35:00 000",405.183,0.844917,1.91968,0.00390214,9235.46,138.114
"2017-03-01 22:45:00 000",406.154,0.911873,1.92067,0.00413712,9068.15,133.426
"2017-03-01 22:55:00 000",405.864,0.843556,1.92242,0.00407779,8857.35,141.116
"2017-03-01 23:05:00 000",405.570,0.834963,1.92284,0.00385356,8740.85,121.076
"2017-03-01 23:15:00 000",404.820,0.898319,1.92016,0.00446932,8909.26,159.178
"2017-03-01 23:25:00 000",403.892,0.881207,1.92947,0.00529809,9111.19,112.788
"2017-03-01 23:35:00 000",403.385,0.910970,1.92680,0.00516816,8970.87,177.302
"2017-03-01 23:45:00 000",403.929,0.792637,1.92934,0.00499661,8618.45,156.484
"2017-03-01 23:55:00 000",404.444,0.809351,1.93331,0.00496437,8621.69,135.637
"2017-03-02 00:05:00 000",404.585,0.933438,1.93380,0.00598211,8746.49,114.289
"2017-03-02 00:15:00 000",405.017,0.869247,1.93461,0.00737512,8667.14,117.160
"2017-03-02 00:25:00 000",405.262,0.840536,1.93140,0.00641082,8681.16,117.270
"2017-03-02 00:35:00 000",404.796,0.837617,1.93156,0.00517898,8396.91,153.334
"2017-03-02 00:45:00 000",405.822,1.05867,1.92669,0.00409894,8203.34,118.360
"2017-03-02 00:55:00 000",406.299,0.877049,1.93198,0.00987422,8401.45,119.777
"2017-03-02 01:05:00 000",405.072,0.962727,1.93699,0.0100770,8477.24,123.955
"2017-03-02 01:15:00 000",404.033,0.876846,1.92148,0.00559239,8519.36,112.222
"2017-03-02 01:25:00 000",404.904,0.881392,1.93114,0.00726976,8481.01,118.311
"2017-03-02 01:35:00 000",405.117,0.941018,1.92240,0.00782001,8399.97,129.553
"2017-03-02 01:45:00 000",404.898,0.874123,1.91418,0.00649889,8541.74,134.846
"2017-03-02 01:55:00 000",404.938,0.913910,1.90850,0.00438773,8656.30,136.001
"2017-03-02 02:05:00 000",404.623,0.987853,1.91105,0.00458623,8810.96,116.091
"2017-03-02 02:15:00 000",404.910,0.877123,1.90935,0.00450249,8784.56,121.578
"2017-03-02 02:25:00 000",404.891,0.868626,1.90801,0.00414672,8863.36,110.608
"2017-03-02 02:35:00 000",404.785,0.808189,1.91011,0.00512137,8990.41,124.325
"2017-03-02 02:45:00 000",404.293,0.903566,1.91293,0.00476557,8994.20,151.768
"2017-03-02 02:55:00 000",405.387,0.841696,1.91441,0.00462293,8565.10,198.451
"2017-03-02 03:05:00 000",405.726,0.841684,1.91558,0.00484493,8209.13,106.397
"2017-03-02 03:15:00 000",405.945,0.996091,1.92303,0.00590298,7890.20,123.596
"2017-03-02 03:25:00 000",405.969,0.879830,1.92064,0.00531943,7973.50,100.356
"2017-03-02 03:35:00 000",405.899,0.832628,1.91555,0.00462296,7670.22,185.618
"2017-03-02 03:45:00 000",405.975,0.909605,1.91703,0.00445670,6965.33,207.658
"2017-03-02 03:55:00 000",405.614,0.856219,1.91716,0.00503036,6581.67,111.466
"2017-03-02 04:05:00 000",406.309,0.937241,1.91585,0.00489941,6558.96,119.164
"2017-03-02 04:15:00 000",405.879,1.05779,1.91667,0.00405845,6474.70,124.169
"2017-03-02 04:25:00 000",405.969,0.895861,1.91727,0.00440856,6209.43,149.982
"2017-03-02 04:35:00 000",406.266,0.895230,1.91752,0.00446339,5986.67,157.258
"2017-03-02 04:45:00 000",406.466,0.921426,1.92292,0.00519598,5818.43,151.136
"2017-03-02 04:55:00 000",406.645,0.958364,1.92248,0.00507657,5696.13,153.357
"2017-03-02 05:05:00 000",406.872,0.910758,1.92289,0.00513034,5729.04,162.334
"2017-03-02 05:15:00 000",406.425,0.891159,1.91985,0.00503946,5685.49,174.393
"2017-03-02 05:25:00 000",406.540,0.892294,1.92022,0.00525454,5688.12,185.970
"2017-03-02 05:35:00 000",406.756,0.927027,1.92158,0.00526039,5800.99,202.910
"2017-03-02 05:45:00 000",407.297,1.00923,1.92131,0.00543401,5847.03,203.673
"2017-03-02 05:55:00 000",407.061,0.939659,1.91656,0.00553848,5803.83,231.323
"2017-03-02 06:05:00 000",407.035,0.939148,1.92112,0.00568898,5689.21,226.219
"2017-03-02 06:15:00 000",406.362,0.905501,1.92169,0.00522736,5717.09,226.846
"2017-03-02 06:25:00 000",406.916,0.937541,1.92495,0.00525571,5696.38,228.563
"2017-03-02 06:35:00 000",407.511,0.962136,1.92491,0.00586940,5738.79,233.640
"2017-03-02 06:45:00 000",407.170,0.919928,1.92275,0.00538265,5769.46,236.081
"2017-03-02 06:55:00 000",407.137,0.917284,1.92785,0.00667929,5767.66,228.751
"2017-03-02 07:05:00 000",407.350,0.826803,1.92845,0.00600115,5798.45,238.809
"2017-03-02 07:15:00 000",407.366,0.914810,1.92551,0.00534625,5904.04,223.465
"2017-03-02 07:25:00 000",407.201,0.894204,1.92596,0.00518641,5715.37,221.688
"2017-03-02 07:35:00 000",407.377,0.896571,1.92641,0.00569337,5684.11,225.381
"2017-03-02 07:45:00 000",407.470,0.911066,1.92403,0.00490426,5618.97,226.306
"2017-03-02 07:55:00 000",407.578,0.868198,1.92148,0.00603530,5669.68,230.631
"2017-03-02 08:05:00 000",407.936,0.923649,1.91807,0.00502482,5835.22,206.127
"2017-03-02 08:15:00 000",407.573,0.881420,1.91838,0.00509426,5773.75,202.518
"2017-03-02 08:25:00 000",407.472,0.832982,1.91982,0.00504942,5770.02,202.076
"2017-03-02 08:35:00 000",407.658,0.878250,1.92062,0.00511036,5879.69,203.208
"2017-03-02 08:45:00 000",407.824,0.857644,1.92325,0.00570410,5850.78,208.838
"2017-03-02 08:55:00 000",407.567,0.897228,1.92742,0.00549589,5701.26,201.389
"2017-03-02 09:05:00 000",407.153,0.887136,1.92658,0.00528423,5769.24,192.187
"2017-03-02 09:15:00 000",407.097,0.913811,1.92600,0.00554668,5781.58,203.797
"2017-03-02 09:25:00 000",407.533,0.961780,1.92930,0.00693432,5753.29,219.162
"2017-03-02 09:35:00 000",407.184,0.861362,1.93258,0.00564063,5681.89,203.062
"2017-03-02 09:45:00 000",406.477,0.973509,1.93031,0.00545004,5601.83,192.194
"2017-03-02 09:55:00 000",406.112,0.878649,1.92845,0.00563789,5670.76,193.811
"2017-03-02 10:05:00 000",406.599,0.934675,1.93213,0.00596467,5689.23,186.566
"2017-03-02 10:15:00 000",407.026,0.921914,1.93518,0.00715149,5807.06,203.829
"2017-03-02 10:25:00 000",406.527,0.862728,1.92794,0.00498745,5856.99,195.267
"2017-03-02 10:35:00 000",407.266,0.877315,1.93197,0.00686591,5878.70,195.902
"2017-03-02 10:45:00 000",406.616,0.869619,1.93083,0.00569442,5841.24,170.953
"2017-03-02 10:55:00 000",406.709,0.930130,1.93018,0.00533675,5780.84,172.028
"2017-03-02 11:05:00 000",406.376,0.940340,1.93101,0.00603237,5772.05,161.063
"2017-03-02 11:15:00 000",406.878,0.931402,1.92849,0.00501423,5879.36,155.705
"2017-03-02 11:25:00 000",406.790,0.955719,1.92828,0.00473050,5884.99,158.626
"2017-03-02 11:35:00 000",406.894,0.887001,1.93758,0.00689585,5969.23,137.256
"2017-03-02 11:45:00 000",406.860,0.916077,1.93561,0.00593194,5925.51,131.298
"2017-03-02 11:55:00 000",406.867,0.882916,1.93636,0.00533110,5868.56,125.036
"2017-03-02 12:05:00 000",406.662,0.936449,1.93659,0.00811648,5940.73,124.184
"2017-03-02 12:15:00 000",406.251,0.925553,1.93213,0.00475362,6638.33,361.979
"2017-03-02 12:25:00 000",406.108,0.846276,1.92982,0.00472262,6735.96,120.969
"2017-03-02 12:35:00 000",405.715,0.948680,1.92840,0.00613862,6701.70,113.597
"2017-03-02 12:45:00 000",405.786,0.873513,1.92888,0.00500597,6567.05,110.479
"2017-03-02 12:55:00 000",405.262,0.961934,1.93478,0.00609767,6449.28,121.375
"2017-03-02 13:05:00 000",405.608,0.858016,1.93490,0.00661763,6513.96,113.193
"2017-03-02 13:15:00 000",405.795,0.887073,1.93662,0.00719531,6557.90,110.294
"2017-03-02 13:25:00 000",405.900,0.905617,1.93887,0.00542645,6462.04,100.192
"2017-03-02 13:35:00 000",405.725,0.867385,1.93134,0.00605175,6139.99,119.721
"2017-03-02 13:45:00 000",406.018,0.842438,1.92296,0.00649899,6623.98,442.991
"2017-03-02 13:55:00 000",405.467,0.844653,1.92503,0.00667103,7087.48,117.463
"2017-03-02 14:05:00 000",405.724,0.831518,1.92482,0.00489981,6957.09,110.152
"2017-03-02 14:15:00 000",406.115,0.868921,1.92988,0.00597413,7010.41,94.7594
"2017-03-02 14:25:00 000",406.171,0.842725,1.92725,0.00499592,6913.35,120.211
"2017-03-02 14:35:00 000",406.268,0.820440,1.93326,0.00595242,6987.62,121.417
"2017-03-02 14:45:00 000",406.410,0.886508,1.92952,0.00542572,7011.43,109.936
"2017-03-02 14:55:00 000",406.159,0.850339,1.93231,0.00591177,7011.71,101.703
"2017-03-02 15:05:00 000",405.991,0.857960,1.92963,0.00578041,6897.26,116.173
"2017-03-02 15:15:00 000",405.884,0.887137,1.92974,0.00471968,6703.52,104.076
"2017-03-02 15:25:00 000",406.266,0.945460,1.93188,0.00560848,6482.96,108.899
"2017-03-02 15:35:00 000",406.577,0.902556,1.93507,0.00565286,6139.69,134.237
"2017-03-02 15:45:00 000",406.492,0.844072,1.94121,0.00674469,5918.20,109.909
"2017-03-02 15:55:00 000",406.098,0.907233,1.94004,0.00585796,5866.42,101.021
"2017-03-02 16:05:00 000",406.005,0.894966,1.93729,0.00470291,5812.29,107.228
"2017-03-02 16:15:00 000",405.893,0.873017,1.94096,0.00627343,5820.68,98.3076
"2017-03-02 16:25:00 000",405.047,0.831491,1.94535,0.00503149,5859.68,95.0240
"2017-03-02 16:35:00 000",405.654,0.903024,1.94167,0.00639016,5728.67,85.4388
"2017-03-02 16:45:00 000",406.288,0.887115,1.94569,0.00586572,5761.27,94.1262
"2017-03-02 16:55:00 000",406.555,0.856194,1.94530,0.00649596,5790.14,88.4361
"2017-03-02 17:05:00 000",406.747,0.866211,1.94738,0.00551561,5848.56,89.0933
"2017-03-02 17:15:00 000",407.033,0.968645,1.95247,0.00720697,5827.18,99.8617
"2017-03-02 17:25:00 000",407.807,0.866221,1.95555,0.00794923,5761.46,83.8977
"2017-03-02 17:35:00 000",407.739,0.891589,1.95847,0.00733185,5794.86,85.8675
"2017-03-02 17:45:00 000",407.661,0.872935,1.96185,0.00885959,5847.55,95.9946
"2017-03-02 17:55:00 000",407.831,0.897477,1.95131,0.00851484,5952.34,90.0698
"2017-03-02 18:05:00 000",408.726,0.889287,1.94758,0.00627592,5902.81,95.8559
"2017-03-02 18:15:00 000",409.062,0.880734,1.95339,0.00534247,6049.68,90.0497
"2017-03-02 18:25:00 000",408.755,0.861829,1.94614,0.00504471,6075.18,87.7393
"2017-03-02 18:35:00 000",408.498,0.871293,1.94234,0.00417374,6004.92,91.5234
"2017-03-02 18:45:00 000",408.201,0.862740,1.94321,0.00496081,5986.14,100.115
"2017-03-02 18:55:00 000",408.058,0.895723,1.95378,0.00779568,6009.70,97.4886
"2017-03-02 19:05:00 000",407.658,0.878526,1.96631,0.00908158,6046.36,99.6769
"2017-03-02 19:15:00 000",407.759,0.841122,1.96884,0.00835306,6150.03,93.2562
"2017-03-02 19:25:00 000",408.667,1.06234,1.97279,0.0107941,6125.89,95.4975
"2017-03-02 19:35:00 000",409.213,0.919424,1.97264,0.0104030,6076.18,107.391
"2017-03-02 19:45:00 000",409.259,0.873595,1.96567,0.00929681,5956.97,94.6745
"2017-03-02 19:55:00 000",409.199,0.961431,1.95914,0.0100525,5872.80,102.667
"2017-03-02 20:05:00 000",409.300,0.924744,1.96088,0.00801305,5776.26,101.351
"2017-03-02 20:15:00 000",409.783,0.978087,1.96316,0.00934454,5732.43,94.0826
"2017-03-02 20:25:00 000",409.597,0.898616,1.96112,0.0111442,5701.87,101.908
"2017-03-02 20:35:00 000",409.390,0.875547,1.95222,0.00743353,5686.67,94.9746
"2017-03-02 20:45:00 000",408.956,0.863449,1.93914,0.00550591,5674.21,98.7153
"2017-03-02 20:55:00 000",409.352,0.885839,1.93979,0.00511952,5658.09,94.7663
"2017-03-02 21:05:00 000",409.111,0.914496,1.93628,0.00392917,5611.27,86.3881
"2017-03-02 21:15:00 000",409.014,0.939405,1.93285,0.00413203,5603.75,91.1259
"2017-03-02 21:25:00 000",409.206,0.843239,1.93320,0.00416315,5575.13,92.2704
"2017-03-02 21:35:00 000",408.428,0.966160,1.93347,0.00428199,5546.07,90.5828
"2017-03-02 21:45:00 000",408.475,0.824831,1.93435,0.00382635,5521.62,91.4855
"2017-03-02 21:55:00 000",409.002,0.896832,1.93476,0.00417328,5556.46,99.5940
"2017-03-02 22:05:00 000",409.091,0.867969,1.93786,0.00390533,5471.25,94.4638
"2017-03-02 22:15:00 000",409.186,0.890947,1.93532,0.00410321,5570.00,95.4406
"2017-03-02 22:25:00 000",409.885,0.932262,1.93566,0.00383324,5563.79,100.953
"2017-03-02 22:35:00 000",410.880,1.08839,1.94426,0.00549829,5495.98,101.915
"2017-03-02 22:45:00 000",411.700,0.990104,1.95582,0.00519954,5569.36,101.443
"2017-03-02 22:55:00 000",411.194,0.853287,1.96183,0.00549009,5591.30,102.920
"2017-03-02 23:05:00 000",411.162,0.945358,1.96479,0.00438559,5609.92,105.903
"2017-03-02 23:15:00 000",411.307,0.935811,1.96581,0.00418931,5584.99,109.666
"2017-03-02 23:25:00 000",411.168,1.00712,1.96859,0.00540962,5584.76,105.539
"2017-03-02 23:35:00 000",412.780,1.74458,1.96961,0.00441998,5624.19,112.949
"2017-03-02 23:45:00 000",413.245,1.57194,1.96532,0.00440751,5677.45,117.324
"2017-03-02 23:55:00 000",412.402,1.26772,1.96208,0.00484792,5679.75,130.311
"2017-03-03 00:05:00 000",413.293,1.19622,1.95771,0.00507614,5667.08,131.407
"2017-03-03 00:15:00 000",414.089,1.21587,1.95590,0.00460502,5628.08,130.483
"2017-03-03 00:25:00 000",413.390,1.42204,1.94980,0.00485143,5679.52,135.011
"2017-03-03 00:35:00 000",413.299,1.16524,1.95002,0.00430379,5539.51,123.840
"2017-03-03 00:45:00 000",411.571,1.23872,1.94595,0.00444197,5696.35,124.552
"2017-03-03 00:55:00 000",412.224,1.24281,1.94601,0.00427881,5669.43,133.669
"2017-03-03 01:05:00 000",412.014,1.09889,1.94424,0.00464088,5703.52,131.978
"2017-03-03 01:15:00 000",411.409,1.24330,1.94284,0.00403899,5709.49,125.198
"2017-03-03 01:25:00 000",411.864,1.46085,1.94063,0.00439429,5661.54,151.905
"2017-03-03 01:35:00 000",414.688,1.57946,1.93980,0.00489690,5676.31,147.856
"2017-03-03 01:45:00 000",413.394,1.38221,1.93683,0.00426408,5673.76,153.891
"2017-03-03 01:55:00 000",412.570,1.21730,1.93369,0.00428749,5720.99,146.687